Andalusia, AL

5:47 AM CST on February 07, 2016 (GMT -0600)
Andalusia

Weather History for K79J - April, 2013

Change the Weather History Date:

Thursday, April 18, 2013

  Actual Average (KCEW) Record (KCEW)
Temperature  
Mean Temperature 74 °F -  
Max Temperature 84 °F 79 °F 93 °F (2006)
Min Temperature 64 °F 50 °F 30 °F (1999)
Cooling Degree Days 9    
Growing Degree Days 24 (Base 50)    
Moisture  
Dew Point 64 °F    
Average Humidity 69    
Maximum Humidity 84    
Minimum Humidity 48    
Precipitation  
Precipitation 0.00 in - - ()
Sea Level Pressure  
Sea Level Pressure 29.96 in    
Wind  
Wind Speed 5 mph (South)    
Max Wind Speed 12 mph    
Max Gust Speed 23 mph    
Visibility 10 miles    
Events      
Averages and records for this station are not official NWS values.
T = Trace of Precipitation, MM = Missing Value Source: NWS Daily Summary

Daily Weather History Graph

Daily Weather History Graph

Search for Another Location

Airport or City:

Trip Planner

Search our weather history database for the weather conditions in past years. The results will help you decide how hot, cold, wet, or windy it might be!

Date:

Astronomy

Apr. 18, 2013 Rise Set
Actual Time 6:13 AM CDT 7:16 PM CDT
Civil Twilight 5:48 AM CDT 7:41 PM CDT
Nautical Twilight 5:19 AM CDT 8:11 PM CDT
Astronomical Twilight 4:48 AM CDT 8:41 PM CDT
Moon 12:29 PM CDT (4/18) 1:25 AM CDT (4/18)
Length of Visible Light 13h 52m
Length of Day
13h 02m
First Quarter, 52% of the Moon is Illuminated
Apr 18
First Quarter
Apr 25
Full
May 2
Last Quarter
May 9
New
May 17
First Quarter

Hourly Weather History & Observations

Time (CDT) Temp. Heat Index Dew Point Humidity Pressure Visibility Wind Dir Wind Speed Gust Speed Precip Events Conditions
12:56 AM 66.9 °F - 61.0 °F 81% 30.04 in 8.0 mi Calm Calm - N/A   Clear
1:56 AM 66.9 °F - 60.1 °F 79% 30.02 in 10.0 mi Calm Calm - N/A   Clear
2:56 AM 64.0 °F - 59.0 °F 84% 30.01 in 6.0 mi SE 3.5 mph - N/A   Haze
3:56 AM 66.0 °F - 60.1 °F 81% 29.99 in 10.0 mi SE 5.8 mph - N/A   Clear
4:56 AM 66.0 °F - 60.1 °F 81% 29.97 in 10.0 mi SSE 6.9 mph - N/A   Clear
5:56 AM 66.0 °F - 60.1 °F 81% 29.98 in 9.0 mi SSE 5.8 mph - N/A   Clear
6:56 AM 66.9 °F - 61.0 °F 81% 29.98 in 8.0 mi SSE 6.9 mph - N/A   Partly Cloudy
7:56 AM 70.0 °F - 63.0 °F 78% 30.00 in 10.0 mi Variable 4.6 mph - N/A   Partly Cloudy
8:56 AM 73.0 °F - 63.0 °F 71% 30.01 in 10.0 mi South 9.2 mph - N/A   Clear
9:56 AM 77.0 °F - 63.0 °F 62% 30.01 in 10.0 mi Variable 5.8 mph - N/A   Clear
10:56 AM 79.0 °F - 63.0 °F 58% 30.00 in 10.0 mi South 6.9 mph - N/A   Mostly Cloudy
11:11 AM 80.6 °F 81.8 °F 62.6 °F 54% 30.00 in 10.0 mi Variable 6.9 mph 23.0 mph N/A   Mostly Cloudy
11:56 AM 82.0 °F 83.1 °F 63.0 °F 52% 29.98 in 10.0 mi South 8.1 mph 16.1 mph N/A   Mostly Cloudy
12:56 PM 84.9 °F 86.1 °F 64.0 °F 49% 29.96 in 10.0 mi SSW 11.5 mph 19.6 mph N/A   Scattered Clouds
1:56 PM 84.9 °F 85.9 °F 63.0 °F 48% 29.95 in 10.0 mi SSW 9.2 mph 17.3 mph N/A   Mostly Cloudy
2:56 PM 84.0 °F 84.9 °F 63.0 °F 49% 29.93 in 10.0 mi SW 8.1 mph 17.3 mph N/A   Mostly Cloudy
3:56 PM 84.9 °F 86.1 °F 64.0 °F 49% 29.91 in 10.0 mi SSW 11.5 mph 19.6 mph N/A   Partly Cloudy
4:56 PM 82.0 °F 83.4 °F 64.0 °F 54% 29.91 in 10.0 mi SW 9.2 mph 16.1 mph N/A   Partly Cloudy
5:56 PM 81.0 °F 82.5 °F 64.0 °F 56% 29.91 in 10.0 mi SW 9.2 mph 17.3 mph N/A   Scattered Clouds
6:56 PM 79.0 °F - 66.9 °F 66% 29.92 in 10.0 mi SW 8.1 mph - N/A   Mostly Cloudy
7:56 PM 77.0 °F - 66.9 °F 71% 29.91 in 10.0 mi SSW 3.5 mph - N/A   Partly Cloudy
8:56 PM 75.0 °F - 66.9 °F 76% 29.93 in 10.0 mi SSW 6.9 mph - N/A   Partly Cloudy
9:56 PM 73.9 °F - 66.9 °F 79% 29.92 in 10.0 mi Variable 6.9 mph - N/A   Clear
10:56 PM 73.9 °F - 66.9 °F 79% 29.90 in 9.0 mi Variable 5.8 mph - N/A   Overcast
11:36 PM 73.4 °F - 66.2 °F 78% 29.91 in 10.0 mi Variable 5.8 mph - N/A   Overcast
11:43 PM 73.4 °F - 66.2 °F 78% 29.91 in 10.0 mi SSW 5.8 mph - N/A   Overcast
11:56 PM 73.9 °F - 66.9 °F 79% 29.88 in 10.0 mi Variable 6.9 mph - N/A   Overcast